Location: Unspecified
(35.6961°N, 0.0000°E)
Time: 15:21:06
(UTC+00:00)

Vanguard 2 Rocket - Pass Details

Date: 29 May 2019
Orbit: 554 x 3326 km, 32.9° (Epoch: 16 June)

Event Time Altitude Azimuth Distance (km) Brightness Sun altitude
Rises 10:28:39 0° 283° (WNW) 6,091 10.9 66.1°
Reaches altitude 10° 10:33:55 10° 274° (W) 4,582 10.4 67.0°
Maximum altitude 10:43:16 29° 221° (SW) 2,406 9.5 68.6°
Drops below altitude 10° 10:49:17 10° 164° (SSE) 2,862 9.9 69.5°
Sets 10:51:47 0° 151° (SSE) 3,530 10.2 69.9°
